{"data":{"norad_id":63504,"intl_designator":"2025-071M","name":"STARLINK-33811","alt_names":[],"object_type":"PAYLOAD","status":"ACTIVE","operator":null,"country":"US","launch_date":"2025-04-07","launch_site_code":"AFWTR","launch_vehicle":null,"mission":null,"orbit_class":"UNKNOWN","rcs_meters":null,"size_class":null,"mass_kg":null,"dimensions":null,"purposes":["comms"],"wikipedia_slug":null,"has_3d_model":false,"image_url":null,"decayed_at":null,"tle_current":{"epoch":"2026-05-25T00:47:19.887648Z","epoch_age_seconds":65371,"freshness":"FRESH","line1":"1 63504U 25071M   26145.03286907  .00009527  00000+0  33333-3 0  9996","line2":"2 63504  53.1565 145.6519 0001337  83.9292 276.1861 15.30202791 64396","mean_motion":15.30202791,"eccentricity":0.0001337,"inclination_deg":53.1565,"raan_deg":145.6519,"arg_perigee_deg":83.9292,"mean_anomaly_deg":276.1861,"bstar":0.00033333,"rev_number":6439,"period_min":94.105174063821,"perigee_km":474.29044395157,"apogee_km":476.12302806657,"semimajor_km":6853.3437360091,"source":"CELESTRAK","updated_at":"2026-05-25T13:38:20.013883Z"}}}